TimeEDT,TemperatureF,Dew PointF,Humidity,Sea Level PressureIn,VisibilityMPH,Wind Direction,Wind SpeedMPH,Gust SpeedMPH,PrecipitationIn,Events,Conditions,WindDirDegrees,DateUTC
12:11 AM,73.4,69.8,88,30.01,10.0,Calm,Calm,-,N/A,,Mostly Cloudy,0,2012-10-08 04:11:00
12:55 AM,73.2,68.0,84,30.01,10.0,Calm,Calm,-,N/A,,Mostly Cloudy,0,2012-10-08 04:55:00
1:12 AM,73.4,66.2,78,30.00,10.0,Calm,Calm,-,N/A,,Scattered Clouds,0,2012-10-08 05:12:00
1:36 AM,71.6,68.0,88,30.01,10.0,Calm,Calm,-,N/A,,Mostly Cloudy,0,2012-10-08 05:36:00
1:55 AM,72.3,68.4,87,30.01,10.0,NW,3.5,-,N/A,,Overcast,320,2012-10-08 05:55:00
2:26 AM,71.6,66.2,83,30.00,10.0,NW,3.5,-,N/A,,Overcast,320,2012-10-08 06:26:00
2:40 AM,71.6,66.2,83,30.00,10.0,North,4.6,-,N/A,,Overcast,360,2012-10-08 06:40:00
2:46 AM,71.6,66.2,83,29.99,10.0,North,4.6,-,N/A,,Overcast,350,2012-10-08 06:46:00
2:55 AM,71.4,66.6,85,29.99,10.0,NNW,5.8,-,N/A,,Overcast,340,2012-10-08 06:55:00
3:55 AM,69.8,66.0,88,29.98,10.0,NNE,3.5,-,N/A,,Partly Cloudy,20,2012-10-08 07:55:00
4:54 AM,68.0,66.2,94,29.99,10.0,North,8.1,-,N/A,,Mostly Cloudy,10,2012-10-08 08:54:00
4:55 AM,68.5,66.7,94,29.99,10.0,North,8.1,-,N/A,,Mostly Cloudy,360,2012-10-08 08:55:00
5:47 AM,68.0,66.2,94,30.01,10.0,NNE,8.1,-,N/A,,Overcast,20,2012-10-08 09:47:00
5:55 AM,67.6,65.5,93,30.01,10.0,NNE,8.1,-,N/A,,Overcast,30,2012-10-08 09:55:00
6:55 AM,66.2,63.5,91,30.02,10.0,NNE,6.9,-,N/A,,Overcast,20,2012-10-08 10:55:00
7:55 AM,65.3,62.6,91,30.04,10.0,NNE,4.6,-,N/A,,Overcast,20,2012-10-08 11:55:00
8:55 AM,65.5,62.2,89,30.06,10.0,NE,5.8,-,N/A,,Overcast,40,2012-10-08 12:55:00
9:55 AM,67.1,63.0,87,30.06,10.0,NE,4.6,-,N/A,,Overcast,40,2012-10-08 13:55:00
10:46 AM,68.0,62.6,83,30.07,10.0,NNE,3.5,-,N/A,,Overcast,20,2012-10-08 14:46:00
10:55 AM,68.5,63.5,84,30.07,10.0,North,4.6,-,N/A,,Overcast,360,2012-10-08 14:55:00
11:55 AM,69.3,63.7,82,30.06,10.0,North,3.5,-,N/A,,Overcast,10,2012-10-08 15:55:00
12:55 PM,70.9,64.4,80,30.05,10.0,North,5.8,-,N/A,,Overcast,360,2012-10-08 16:55:00
1:55 PM,70.3,63.7,79,30.02,10.0,NNW,8.1,-,N/A,,Overcast,340,2012-10-08 17:55:00
2:55 PM,68.0,62.2,82,30.01,10.0,NNW,11.5,-,N/A,,Overcast,340,2012-10-08 18:55:00
3:33 PM,66.2,60.8,83,30.03,10.0,North,10.4,-,N/A,,Light Drizzle,360,2012-10-08 19:33:00
3:55 PM,64.8,61.3,89,30.02,10.0,NNW,10.4,-,0.00,Rain,Light Rain,340,2012-10-08 19:55:00
4:01 PM,64.4,60.8,88,30.02,10.0,North,11.5,-,N/A,Rain,Light Rain,350,2012-10-08 20:01:00
4:02 PM,64.4,60.8,88,30.02,10.0,NNW,11.5,-,N/A,,Overcast,340,2012-10-08 20:02:00
4:53 PM,62.6,59.0,88,30.02,10.0,NE,6.9,-,N/A,,Light Drizzle,50,2012-10-08 20:53:00
4:55 PM,62.2,58.8,89,30.02,10.0,NNE,5.8,-,0.00,,Light Drizzle,20,2012-10-08 20:55:00
5:04 PM,62.6,59.0,88,30.03,10.0,North,4.6,-,N/A,,Overcast,360,2012-10-08 21:04:00
5:55 PM,62.4,58.6,87,30.04,10.0,North,9.2,-,0.00,,Overcast,10,2012-10-08 21:55:00
6:55 PM,61.0,57.9,90,30.04,10.0,North,11.5,-,N/A,,Overcast,360,2012-10-08 22:55:00
7:10 PM,60.8,57.2,88,30.04,10.0,NNW,11.5,-,N/A,,Overcast,330,2012-10-08 23:10:00
7:55 PM,60.1,57.7,92,30.05,10.0,North,11.5,-,N/A,,Overcast,350,2012-10-08 23:55:00
7:59 PM,60.8,57.2,88,30.06,10.0,North,9.2,-,N/A,,Overcast,350,2012-10-08 23:59:00
8:55 PM,59.4,57.4,93,30.08,10.0,North,9.2,-,N/A,,Overcast,10,2012-10-09 00:55:00
9:55 PM,58.8,57.2,94,30.09,10.0,NNW,6.9,-,N/A,,Overcast,340,2012-10-09 01:55:00
10:21 PM,59.0,55.4,88,30.09,10.0,North,10.4,-,N/A,,Overcast,350,2012-10-09 02:21:00
10:34 PM,59.0,55.4,88,30.09,10.0,North,8.1,-,N/A,,Overcast,350,2012-10-09 02:34:00
10:55 PM,58.5,55.6,90,30.10,10.0,North,4.6,-,N/A,,Overcast,350,2012-10-09 02:55:00
11:19 PM,59.0,55.4,88,30.09,10.0,North,8.1,-,N/A,,Overcast,350,2012-10-09 03:19:00
11:55 PM,57.9,55.6,92,30.10,10.0,North,8.1,-,N/A,,Overcast,350,2012-10-09 03:55:00